This is the latest recevied weather packets stored in our database for station/object CE3MXM-13. If no packets are shown the sender has not sent any weather packets the latest 10 day(s).
| Time | Temp. | Humidity | Pressure | Rain* | Wind** | Luminosity | Snow |
|---|---|---|---|---|---|---|---|
| 1778017812 | 16.67° C | 71% | 1009.5 hPa | - | - | - | - |
| 1778017512 | 16.67° C | 70% | 1009.4 hPa | - | - | - | - |
| 1778017212 | 17.22° C | 70% | 1009.4 hPa | - | - | - | - |
| 1778016911 | 17.22° C | 70% | 1009.5 hPa | - | - | - | - |
| 1778016611 | 17.78° C | 69% | 1009.3 hPa | - | - | - | - |
| 1778016311 | 17.78° C | 68% | 1009.4 hPa | - | - | - | - |
| 1778016011 | 18.33° C | 67% | 1009.1 hPa | - | - | - | - |
| 1778015711 | 18.33° C | 66% | 1009 hPa | - | - | - | - |
| 1778015411 | 18.89° C | 65% | 1009.1 hPa | - | - | - | - |
| 1778015111 | 18.89° C | 64% | 1009 hPa | - | - | - | - |
| 1778014811 | 19.44° C | 63% | 1009 hPa | - | - | - | - |
| 1778014511 | 19.44° C | 63% | 1009.2 hPa | - | - | - | - |
| 1778014211 | 19.44° C | 63% | 1009.1 hPa | - | - | - | - |
| 1778013910 | 19.44° C | 62% | 1009.1 hPa | - | - | - | - |
| 1778013613 | 20° C | 62% | 1009 hPa | - | - | - | - |
| 1778013314 | 20° C | 62% | 1009.2 hPa | - | - | - | - |
| 1778013010 | 20° C | 61% | 1009.1 hPa | - | - | - | - |
| 1778012710 | 20° C | 61% | 1009.1 hPa | - | - | - | - |
| 1778012415 | 20° C | 60% | 1009 hPa | - | - | - | - |
| 1778012110 | 20° C | 59% | 1008.9 hPa | - | - | - | - |
| 1778011810 | 20.56° C | 59% | 1009.1 hPa | - | - | - | - |
| 1778011509 | 20.56° C | 57% | 1008.7 hPa | - | - | - | - |
| 1778011209 | 20.56° C | 56% | 1008.9 hPa | - | - | - | - |
| 1778010910 | 21.11° C | 56% | 1008.9 hPa | - | - | - | - |
| 1778010612 | 20.56° C | 56% | 1008.8 hPa | - | - | - | - |
* Rain since midnight (hover to see other rain measurements)
** Current wind speed in m/s (hover to see current wind gust speed)